Regional Weather Roundup
Issued by NWS

Home | Current Version | Previous Version | Graphics & Text | Print | Product List | Glossary On
Versions: 1 2 3 4 5 6 7 8 9 10 11 12 13 14 15 16 17 18 19 20 21 22 23 24 25 26 27 28 29 30 31 32 33 34 35 36 37 38 39 40 41 42 43 44 45 46 47 48 49 50
334
ASUS45 KPSR 082110
RWRAZ

ARIZONA HOURLY REGIONAL WEATHER ROUNDUP
NATIONAL WEATHER SERVICE PHOENIX AZ
200 PM MST MON FEB 08 2016

NOTE: FAIR INDICATES FEW OR NO CLOUDS BELOW 12,000 FEET WITH NO
SIGNIFICANT WEATHER AND/OR OBSTRUCTIONS TO VISIBILITY.

AZZ001>003-036-082200-
NORTHWEST ARIZONA

CITY           SKY/WX    TMP DP  RH WIND       PRES   REMARKS
BULLHEAD CITY  SUNNY     72  23  16 N32G43    30.25F
KINGMAN        SUNNY     65  20  17 N14       30.34F
$$

AZZ004>008-015-016-018-082200-
NORTH CENTRAL ARIZONA

CITY           SKY/WX    TMP DP  RH WIND       PRES   REMARKS
GRAND CANYON   SUNNY     53  18  25 E12G21    30.48F
WILLIAMS       SUNNY     57  23  26 NE12G20   30.49F
PRESCOTT       SUNNY     69  14  12 NE15      30.34F
FLAGSTAFF      SUNNY     49  16  26 NE17G25   30.46F
PAYSON         SUNNY     68  14  12 NE9       30.35S
PAGE           SUNNY     47  24  40 VRB5      30.50F
$$

AZZ009>014-017-082200-
NORTHEAST ARIZONA

CITY           SKY/WX    TMP DP  RH WIND       PRES   REMARKS
WINSLOW        SUNNY     55  20  25 N3        30.45F
SAINT JOHNS    SUNNY     53  21  28 NW9       30.42F
WINDOW ROCK    SUNNY     57   0  10 NW14G20   30.41F
SHOW LOW       SUNNY     48  19  32 N12       30.45F
$$

AZZ023-082200-
GREATER PHOENIX AREA

CITY           SKY/WX    TMP DP  RH WIND       PRES   REMARKS
PHOENIX        MOSUNNY   81  17   9 NE14      30.12F
BUCKEYE        SUNNY     77  28  16 SE9       30.16F
GLENDALE       SUNNY     79  21  11 CALM      30.15F
LUKE AFB       SUNNY     79  23  12 CALM      30.12F
DEER VALLEY    SUNNY     80  20  10 VRB5      30.13F
SCOTTSDALE     SUNNY     79  18  10 S5        30.15F
MESA-FALCON    SUNNY    N/A N/A N/A N23       30.13F
MESA-GATEWAY   MOSUNNY   79  19  11 CALM      30.14F
CHANDLER       SUNNY     79  18  10 NE6       30.14F
$$

AZZ027-028-082200-
SOUTHWEST MARICOPA COUNTY AND PINAL COUNTY

CITY           SKY/WX    TMP DP  RH WIND       PRES   REMARKS
CASA GRANDE    SUNNY     81  25  12 NE17      30.14F
GILA BEND      SUNNY     80  21  11 NE14      30.11F
$$

AZZ503-504-507>509-082200-
SOUTHEAST ARIZONA

CITY           SKY/WX    TMP DP  RH WIND       PRES   REMARKS
TUCSON         SUNNY     80  16   9 SE10      30.16F
DAVIS-MONTHAN  SUNNY     78  18  10 NE3       30.14F
NOGALES        SUNNY     79  12   8 VRB7      30.16F
SIERRA VISTA   SUNNY     70  13  11 SE12      30.26F
DOUGLAS        SUNNY     71  17  12 E15       30.24F
SAFFORD        SUNNY     69  20  15 S9        30.24F
$$

AZZ020-021-025-026-031-082200-
SOUTHWEST ARIZONA

CITY           SKY/WX    TMP DP  RH WIND       PRES   REMARKS
YUMA           SUNNY     81  21  11 N18       30.14F
$$

CAZ031-033-041-043-047-048-061-082200-
SOUTHERN CALIFORNIA

CITY           SKY/WX    TMP DP  RH WIND       PRES   REMARKS
DOWNTOWN L.A.  SUNNY     88  24  10 E6        30.09F
L.A. AIRPORT   SUNNY     86  23  10 CALM      30.10F
SAN DIEGO      SUNNY     82  21  10 NW9       30.09F
BURBANK        SUNNY     85  24  11 S9        30.11F
ONTARIO        SUNNY     85  19   9 E16G24    30.11F
RIVERSIDE      SUNNY     81  21  11 NE14G22   30.15F
PALM SPRINGS   SUNNY     81  21  11 NW5       30.22F
EL CENTRO NAS  MOSUNNY   82  19   9 VRB6      30.18F
IMPERIAL       SUNNY     82  27  13 NW8       30.16F
BLYTHE         SUNNY     79  21  11 N15G26    30.18F
NEEDLES        SUNNY     75  22  13 N25G36    30.25F
$$

NVZ020-UTZ003-082200-
SOUTHERN NEVADA-UTAH

CITY           SKY/WX    TMP DP  RH WIND       PRES   REMARKS
LAS VEGAS      SUNNY     67  23  19 NE7       30.33F
SALT LAKE CITY PTSUNNY   39  28  65 N7        30.65  WCI  34
$$

NMZ009-TXZ055-082200-
NEW MEXICO-WEST TEXAS

CITY           SKY/WX    TMP DP  RH WIND       PRES   REMARKS
ALBUQUERQUE    SUNNY     56  17  21 N5        30.36F
EL PASO        MOSUNNY   57  15  19 SE3       30.33F
$$


........................KEY........................
SKY/WX - SKY CONDITION/WEATHER
TMP    - TEMPERATURE IN FAHRENHEIT
DP     - DEW POINT IN FAHRENHEIT
RH     - RELATIVE HUMIDITY IN PERCENT
WIND   - DIRECTION AND SPEED IN MILES PER HOUR (MPH)
VRB    - VARIABLE WIND DIRECTION
PRES   - MEAN SEA LEVEL PRESSURE IN INCHES OF MERCURY
         F - FALLING PRESSURE   R - RISING PRESSURE
         S - STEADY PRESSURE
VSB    - VISIBILITY IN MILES
HX     - HEAT INDEX IN FAHRENHEIT
WCI    - WIND CHILL INDEX IN FAHRENHEIT
TC     - TEMPERATURE IN CELSIUS WHICH IS ALSO KNOWN AS
         TEMPERATURE IN CENTIGRADE
AFB    - AIR FORCE BASE
         LUKE AFB IS LUKE AIR FORCE BASE
         DAVIS-MONTHAN IS DAVIS-MONTHAN AIR FORCE BASE
NAS    - NAVAL AIR STATION
         EL CENTRO NAS IS EL CENTRO NAVAL AIR STATION
N/A    - NOT AVAILABLE





USA.gov is the U.S. government's official web portal to all federal, state and local government web resources and services.